Time,TemperatureF,DewpointF,PressureIn,WindDirection,WindDirectionDegrees,WindSpeedMPH,WindSpeedGustMPH,Humidity,HourlyPrecipIn,Conditions,Clouds,dailyrainin,SolarRadiationWatts/m^2,SoftwareType,DateUTC
2013-10-22 00:00:00,29.0,23.0,-100.00,SW,225,1.0,-999.0,78,-99.99,,,-99.99,0.000000,,2013-10-22 04:00:00,
2013-10-22 00:43:00,29.0,23.0,-100.00,SW,225,1.0,-999.0,78,-99.99,,,-99.99,0.000000,,2013-10-22 04:43:00,
2013-10-22 00:55:00,29.0,23.0,-100.00,SW,225,1.0,-999.0,78,-99.99,,,-99.99,0.000000,,2013-10-22 04:55:00,
2013-10-22 01:00:00,30.0,24.0,-100.00,WSW,247,2.0,-999.0,79,-99.99,,,-99.99,0.000000,,2013-10-22 05:00:00,
2013-10-22 01:43:00,30.0,24.0,-100.00,WSW,247,2.0,-999.0,79,-99.99,,,-99.99,0.000000,,2013-10-22 05:43:00,
2013-10-22 01:52:00,30.0,24.0,-100.00,WSW,247,2.0,-999.0,79,-99.99,,,-99.99,0.000000,,2013-10-22 05:52:00,
2013-10-22 02:00:00,31.0,25.0,-100.00,WSW,247,3.0,-999.0,79,-99.99,,,-99.99,0.000000,,2013-10-22 06:00:00,
2013-10-22 02:43:00,31.0,25.0,-100.00,WSW,247,3.0,-999.0,79,-99.99,,,-99.99,0.000000,,2013-10-22 06:43:00,
2013-10-22 02:54:00,31.0,25.0,-100.00,WSW,247,3.0,-999.0,79,-99.99,,,-99.99,0.000000,,2013-10-22 06:54:00,
2013-10-22 03:00:00,31.0,26.0,-100.00,WSW,247,3.0,-999.0,80,-99.99,,,-99.99,0.000000,,2013-10-22 07:00:00,
2013-10-22 03:42:00,31.0,26.0,-100.00,WSW,247,3.0,-999.0,80,-99.99,,,-99.99,0.000000,,2013-10-22 07:42:00,
2013-10-22 03:52:00,31.0,26.0,-100.00,WSW,247,3.0,-999.0,80,-99.99,,,-99.99,0.000000,,2013-10-22 07:52:00,
2013-10-22 04:00:00,31.0,27.0,-100.00,West,270,2.0,-999.0,82,-99.99,,,-99.99,0.000000,,2013-10-22 08:00:00,
2013-10-22 04:42:00,31.0,27.0,-100.00,West,270,2.0,-999.0,82,-99.99,,,-99.99,0.000000,,2013-10-22 08:42:00,
2013-10-22 04:52:00,31.0,27.0,-100.00,West,270,2.0,-999.0,82,-99.99,,,-99.99,0.000000,,2013-10-22 08:52:00,
2013-10-22 05:00:00,34.0,29.0,-100.00,WNW,292,4.0,-999.0,82,-99.99,,,-99.99,0.000000,,2013-10-22 09:00:00,
2013-10-22 05:43:00,34.0,29.0,-100.00,WNW,292,4.0,-999.0,82,-99.99,,,-99.99,0.000000,,2013-10-22 09:43:00,
2013-10-22 05:54:00,34.0,29.0,-100.00,WNW,292,4.0,-999.0,82,-99.99,,,-99.99,0.000000,,2013-10-22 09:54:00,
2013-10-22 06:00:00,34.0,30.0,-100.00,WNW,292,4.0,-999.0,83,-99.99,,,-99.99,0.000000,,2013-10-22 10:00:00,
2013-10-22 06:43:00,34.0,30.0,-100.00,WNW,292,4.0,-999.0,83,-99.99,,,-99.99,0.000000,,2013-10-22 10:43:00,
2013-10-22 06:53:00,34.0,30.0,-100.00,WNW,292,4.0,-999.0,83,-99.99,,,-99.99,0.000000,,2013-10-22 10:53:00,
2013-10-22 07:00:00,34.0,30.0,-100.00,WNW,292,3.0,-999.0,84,-99.99,,,-99.99,0.000000,,2013-10-22 11:00:00,
2013-10-22 07:42:00,34.0,30.0,-100.00,WNW,292,3.0,-999.0,84,-99.99,,,-99.99,0.000000,,2013-10-22 11:42:00,
2013-10-22 07:53:00,34.0,30.0,-100.00,WNW,292,3.0,-999.0,84,-99.99,,,-99.99,0.000000,,2013-10-22 11:53:00,
2013-10-22 08:00:00,34.0,29.0,-100.00,WNW,292,3.0,-999.0,84,-99.99,,,-99.99,0.000000,,2013-10-22 12:00:00,
2013-10-22 08:42:00,34.0,29.0,-100.00,WNW,292,3.0,-999.0,84,-99.99,,,-99.99,0.000000,,2013-10-22 12:42:00,
2013-10-22 08:52:00,34.0,29.0,-100.00,WNW,292,3.0,-999.0,84,-99.99,,,-99.99,0.000000,,2013-10-22 12:52:00,
2013-10-22 09:00:00,34.0,30.0,-100.00,WNW,292,3.0,-999.0,84,-99.99,,,-99.99,30.160000,,2013-10-22 13:00:00,
2013-10-22 09:42:00,34.0,30.0,-100.00,WNW,292,3.0,-999.0,84,-99.99,,,-99.99,30.160000,,2013-10-22 13:42:00,
2013-10-22 09:53:00,34.0,30.0,-100.00,WNW,292,3.0,-999.0,84,-99.99,,,-99.99,30.160000,,2013-10-22 13:53:00,
2013-10-22 10:00:00,36.0,31.0,-100.00,WNW,292,5.0,-999.0,79,-99.99,,,-99.99,167.039993,,2013-10-22 14:00:00,
2013-10-22 10:42:00,36.0,31.0,-100.00,WNW,292,5.0,-999.0,79,-99.99,,,-99.99,167.039993,,2013-10-22 14:42:00,
2013-10-22 10:52:00,36.0,31.0,-100.00,WNW,292,5.0,-999.0,79,-99.99,,,-99.99,167.039993,,2013-10-22 14:52:00,
2013-10-22 11:00:00,40.0,31.0,-100.00,NW,315,7.0,-999.0,70,-99.99,,,-99.99,301.600006,,2013-10-22 15:00:00,
2013-10-22 11:43:00,40.0,31.0,-100.00,NW,315,7.0,-999.0,70,-99.99,,,-99.99,301.600006,,2013-10-22 15:43:00,
2013-10-22 11:54:00,40.0,31.0,-100.00,NW,315,7.0,-999.0,70,-99.99,,,-99.99,301.600006,,2013-10-22 15:54:00,
2013-10-22 12:00:00,42.0,31.0,-100.00,WNW,292,8.0,-999.0,64,-99.99,,,-99.99,381.640015,,2013-10-22 16:00:00,
2013-10-22 12:43:00,42.0,31.0,-100.00,WNW,292,8.0,-999.0,64,-99.99,,,-99.99,381.640015,,2013-10-22 16:43:00,
2013-10-22 12:53:00,42.0,31.0,-100.00,WNW,292,8.0,-999.0,64,-99.99,,,-99.99,381.640015,,2013-10-22 16:53:00,
2013-10-22 13:00:00,44.0,31.0,-100.00,WNW,292,8.0,-999.0,59,0.01,,,-99.99,479.079987,,2013-10-22 17:00:00,
2013-10-22 13:43:00,44.0,31.0,-100.00,WNW,292,8.0,-999.0,59,0.01,,,-99.99,479.079987,,2013-10-22 17:43:00,
2013-10-22 13:52:00,44.0,31.0,-100.00,WNW,292,8.0,-999.0,59,0.01,,,-99.99,479.079987,,2013-10-22 17:52:00,
2013-10-22 14:00:00,45.0,30.0,-100.00,WNW,292,8.0,-999.0,55,-99.99,,,-99.99,459.359985,,2013-10-22 18:00:00,
2013-10-22 14:42:00,45.0,30.0,-100.00,WNW,292,8.0,-999.0,55,-99.99,,,-99.99,459.359985,,2013-10-22 18:42:00,
2013-10-22 14:52:00,45.0,30.0,-100.00,WNW,292,8.0,-999.0,55,-99.99,,,-99.99,459.359985,,2013-10-22 18:52:00,
2013-10-22 15:00:00,45.0,31.0,-100.00,South,180,7.0,-999.0,58,-99.99,,,-99.99,425.720001,,2013-10-22 19:00:00,
2013-10-22 15:43:00,45.0,31.0,-100.00,South,180,7.0,-999.0,58,-99.99,,,-99.99,425.720001,,2013-10-22 19:43:00,
2013-10-22 15:53:00,45.0,31.0,-100.00,South,180,7.0,-999.0,58,-99.99,,,-99.99,425.720001,,2013-10-22 19:53:00,
2013-10-22 16:00:00,41.0,32.0,-100.00,SSW,202,6.0,-999.0,69,-99.99,,,-99.99,208.800003,,2013-10-22 20:00:00,
2013-10-22 16:43:00,41.0,32.0,-100.00,SSW,202,6.0,-999.0,69,-99.99,,,-99.99,208.800003,,2013-10-22 20:43:00,
2013-10-22 16:52:00,41.0,32.0,-100.00,SSW,202,6.0,-999.0,69,-99.99,,,-99.99,208.800003,,2013-10-22 20:52:00,
2013-10-22 17:00:00,41.0,32.0,-100.00,SSW,202,5.0,-999.0,70,-99.99,,,-99.99,129.919998,,2013-10-22 21:00:00,
2013-10-22 17:44:00,41.0,32.0,-100.00,SSW,202,5.0,-999.0,70,-99.99,,,-99.99,129.919998,,2013-10-22 21:44:00,
2013-10-22 17:54:00,41.0,32.0,-100.00,SSW,202,5.0,-999.0,70,-99.99,,,-99.99,129.919998,,2013-10-22 21:54:00,
2013-10-22 18:00:00,38.0,32.0,-100.00,WNW,292,5.0,-999.0,76,-99.99,,,-99.99,52.200001,,2013-10-22 22:00:00,
2013-10-22 18:44:00,38.0,32.0,-100.00,WNW,292,5.0,-999.0,76,-99.99,,,-99.99,52.200001,,2013-10-22 22:44:00,
2013-10-22 18:54:00,38.0,32.0,-100.00,WNW,292,5.0,-999.0,76,-99.99,,,-99.99,52.200001,,2013-10-22 22:54:00,
2013-10-22 19:00:00,35.0,31.0,-100.00,WNW,292,4.0,-999.0,84,-99.99,,,-99.99,16.240000,,2013-10-22 23:00:00,
2013-10-22 19:43:00,35.0,31.0,-100.00,WNW,292,4.0,-999.0,84,-99.99,,,-99.99,16.240000,,2013-10-22 23:43:00,
2013-10-22 19:53:00,35.0,31.0,-100.00,WNW,292,4.0,-999.0,84,-99.99,,,-99.99,16.240000,,2013-10-22 23:53:00,
2013-10-22 20:00:00,34.0,31.0,-100.00,WNW,292,1.0,-999.0,85,-99.99,,,-99.99,0.000000,,2013-10-23 00:00:00,
2013-10-22 20:42:00,34.0,31.0,-100.00,WNW,292,1.0,-999.0,85,-99.99,,,-99.99,0.000000,,2013-10-23 00:42:00,
2013-10-22 20:52:00,34.0,31.0,-100.00,WNW,292,1.0,-999.0,85,-99.99,,,-99.99,0.000000,,2013-10-23 00:52:00,
2013-10-22 21:00:00,33.0,29.0,-100.00,WNW,292,3.0,-999.0,85,-99.99,,,-99.99,0.000000,,2013-10-23 01:00:00,
2013-10-22 21:42:00,33.0,29.0,-100.00,WNW,292,3.0,-999.0,85,-99.99,,,-99.99,0.000000,,2013-10-23 01:42:00,
2013-10-22 21:52:00,33.0,29.0,-100.00,WNW,292,3.0,-999.0,85,-99.99,,,-99.99,0.000000,,2013-10-23 01:52:00,
2013-10-22 22:00:00,32.0,27.0,-100.00,NW,315,4.0,-999.0,82,-99.99,,,-99.99,0.000000,,2013-10-23 02:00:00,
2013-10-22 22:42:00,32.0,27.0,-100.00,NW,315,4.0,-999.0,82,-99.99,,,-99.99,0.000000,,2013-10-23 02:42:00,
2013-10-22 22:54:00,32.0,27.0,-100.00,NW,315,4.0,-999.0,82,-99.99,,,-99.99,0.000000,,2013-10-23 02:54:00,
2013-10-22 23:00:00,31.0,26.0,-100.00,WNW,292,2.0,-999.0,82,-99.99,,,-99.99,0.000000,,2013-10-23 03:00:00,
2013-10-22 23:44:00,31.0,26.0,-100.00,WNW,292,2.0,-999.0,82,-99.99,,,-99.99,0.000000,,2013-10-23 03:44:00,
2013-10-22 23:55:00,31.0,26.0,-100.00,WNW,292,2.0,-999.0,82,-99.99,,,-99.99,0.000000,,2013-10-23 03:55:00,